Regional Weather Roundup
Issued by NWS

Home | Current Version | Previous Version | Graphics & Text | Print | Product List | Glossary On
Versions: 1 2 3 4 5 6 7 8 9 10 11 12 13 14 15 16 17 18 19 20 21 22 23 24 25 26 27 28 29 30 31 32 33 34 35 36 37 38 39 40 41 42 43 44 45 46 47 48 49 50
000
ASUS43 KLOT 280209
RWRIL

ILLINOIS REGIONAL WEATHER ROUNDUP
NATIONAL WEATHER SERVICE CHICAGO/ROMEOVILLE IL
900 PM CDT THU JUL 27 2017

NOTE: "FAIR" INDICATES FEW OR NO CLOUDS BELOW 12,000 FEET WITH NO
SIGNIFICANT WEATHER AND/OR OBSTRUCTIONS TO VISIBILITY.

* THESE STATIONS ARE NOT UNDER NWS QUALITY CONTROL. THEY ALSO MAY NOT
  REPORT WEATHER SUCH AS PRECIPITATION OR FOG.

ILZ001-002-007-009-015-016-024-280300-
NORTHWEST ILLINOIS

CITY           SKY/WX    TMP DP  RH WIND       PRES   REMARKS
MOLINE         CLEAR     78  63  59 NE7       29.94R HX  80
STERLING*      CLEAR     70  64  81 NE3       29.95S
SAVANNA*       CLEAR     72  65  77 NE6       29.95S
$$

ILZ003-004-008-010-011-017-018-280300-
NORTH CENTRAL ILLINOIS

CITY           SKY/WX    TMP DP  RH WIND       PRES   REMARKS
ROCKFORD       PTCLDY    74  57  55 NE9       29.97S
FREEPORT*      CLEAR     68  60  75 NE6       29.99R
ROCHELLE*      CLEAR     68  61  76 NE8       29.96S
DE KALB*       CLEAR     66  57  71 NE9       29.97S
PERU*          CLEAR     69  61  74 NE7       29.94S
$$

ILZ005-006-012>014-019>023-280300-
NORTHEAST ILLINOIS

CITY           SKY/WX    TMP DP  RH WIND       PRES   REMARKS
CHICAGO-OHARE  PTCLDY    72  56  57 N12       29.94F
CHICAGO-MIDWAY PTCLDY    72  62  71 N14       29.93F
AURORA         CLEAR     67  57  70 N9        29.95S
LANSING*       CLEAR     70  63  78 N7        29.94R
JOLIET*        CLEAR     74  58  57 N9        29.93S
WAUKEGAN       CLEAR     69  59  70 N10G18    29.95S
DUPAGE AIRPORT CLEAR     67  56  67 N10       29.95R
KANKAKEE*      CLEAR     70  64  83 NE6       29.93R
WHEELING       CLEAR     70  57  63 N8        29.96F
MORRIS*        CLEAR     69  60  72 CALM      29.92F
ROMEOVILLE*    CLEAR     71  56  59 NE12      29.94S
$$

LMZ740>746-280300-
SOUTHERN LAKE MICHIGAN

STATION/POSITION SKY/WX   TEMP    WIND        PRES    VSBY  WAVE
                          AIR SEA DIR/SP/G                  HT/PER
                          (F)     (DEG/KT/KT) (MB)    (MI)  (FT/S)
SOUTHERN BUOY              72 71   20/ 17/ 21 1012.9F         5/ 6
WILMETTE HARBOR            71 72  360/ 16/ 19   N/A           5/ 5
HARRISON CRIB              72     360/ 17/ 20   N/A
BURNHAM HARBOR             71                   N/A
CALUMET HARBOR             71     340/ 12/ 18 1013.2F
BURNS HARBOR               73      10/ 15/ 20 1013.5F
MICHIGAN CITY              73      20/ 18/ 20   N/A
MICHIGAN CITY 6N           73 74   20/ 14/ 19   N/A           6/ 5
ST. JOSEPH                 72 72   50/ 12/ 16 1012.7          5/ 5
$$

ILZ025>027-034>036-040-047-049-050-058-095>099-280300-
WEST-CENTRAL ILLINOIS

CITY           SKY/WX    TMP DP  RH WIND       PRES   REMARKS
QUINCY         PTCLDY    79  71  76 N7        29.90F HX  82
GALESBURG*     CLEAR     73  65  75 NE8       29.95S
MACOMB*        CLOUDY    76  71  84 NE8       29.94S
JACKSONVILLE*  CLOUDY    78  73  82 N7        29.89S HX  81
PITTSFIELD*    CLOUDY    79  74  84 N6        29.91S HX  82
$$

ILZ028>032-037-038-041>044-048-051>054-059>061-280300-
CENTRAL ILLINOIS

CITY           SKY/WX    TMP DP  RH WIND       PRES   REMARKS
PONTIAC        PTCLDY    73  64  75 NE9       29.93S
BLOOMINGTON    CLEAR     74  70  87 NE10      29.93R
DECATUR        CLEAR     77  72  84 NE9       29.88S
PEORIA         CLEAR     77  67  71 NE12      29.92R
LACON*         CLEAR     73  63  70 NE3       29.93R
LINCOLN*       PTCLDY    78  73  85 N7        29.90R HX  81
SPRINGFIELD    PTCLDY    79  74  84 N7        29.88S HX  82
TAYLORVILLE    PTCLDY    74  74 100 CALM      29.88S FOG
$$

ILZ033-039-045-046-055>057-062-063-280300-
EAST-CENTRAL ILLINOIS

CITY           SKY/WX    TMP DP  RH WIND       PRES   REMARKS
CHAMPAIGN      CLEAR     76  71  85 NE14      29.89S
RANTOUL*       MOCLDY    76  72  87 NE13      29.91R
MATTOON        CLEAR     75  75 100 N3        29.87S
PARIS*         MOCLDY    75  74  99 NW5       29.88S
$$

ILZ079-100>102-280300-
SOUTHWEST ILLINOIS

CITY           SKY/WX    TMP DP  RH WIND       PRES   REMARKS
ALTON          CLOUDY    73  73 100 NE6       29.88S
BELLEVILLE     LGT RAIN  76  74  94 N8        29.87S
CAHOKIA*       MOCLDY    78  74  87 N6        29.87S HX  81
SPARTA*        CLOUDY    81  74  79 NW6       29.88R HX  86
$$

ILZ064>066-069>071-074>076-080>082-084>086-088>090-092>094-280300-
SOUTH-CENTRAL ILLINOIS

CITY           SKY/WX    TMP DP  RH WIND       PRES   REMARKS
CARBONDALE     CLOUDY    79  76  90 CALM      29.86F HX  83
CAIRO*         CLOUDY    80  76  88 SW5       29.87S HX  86
EFFINGHAM*     CLOUDY    75  75 100 CALM      29.88S
MARION         CLOUDY    77  77 100 CALM      29.87F
MT. VERNON     CLOUDY    77  76  96 CALM      29.86S
CENTRALIA*     CLOUDY    80  78  94 CALM      29.85S THUNDER HX  86
SALEM*         TSTM      78  75  90 NW6       29.88R HX  81
METROPOLIS*    CLOUDY    80  75  86 S3        29.88S HX  84
$$

ILZ067-068-072-073-078-083-087-091-280300-
SOUTHEAST ILLINOIS

CITY           SKY/WX    TMP DP  RH WIND       PRES   REMARKS
LAWRENCEVILLE  CLOUDY    76  75  97 W3        29.86S
FLORA*         CLOUDY    79  75  89 NW5       29.86S HX  82
FAIRFIELD*     MOCLDY    77  76  97 CALM      29.85S
HARRISBURG*    CLOUDY    78  78  99 CALM      29.86F FOG     HX  81
ROBINSON*      PTCLDY    74  74 100 CALM      29.87S
CARMI*         CLOUDY    78  76  94 SW3       29.86S HX  80
$$

ABBREVIATIONS USED IN REMARKS
   TC - TEMPERATURE IN CELSIUS
  WCI - WIND CHILL INDEX
   HX - HEAT INDEX
  VSB - VISIBILITY
$$





USA.gov is the U.S. government's official web portal to all federal, state and local government web resources and services.